Location: Mexico
(19.4000°N, 99.1500°W)
Time: 14:33:24
(UTC-06:00)

ISS - Pass Details

Date: 23 October 2020
Orbit: 417 x 420 km, 51.6° (Epoch: 21 October)

Event Time Altitude Azimuth Distance (km) Brightness Sun altitude
Exits shadow 05:01:37 11° 14° (NNE) 1,412 -1.0 -22.3°
Drops below altitude 10° 05:01:44 11° 15° (NNE) 1,455 -0.9 -22.3°
Sets 05:04:04 0° 27° (NNE) 2,350 0.3 -21.8°
